Showing default

RUNNER-1 (TYVAK-1005), 56953

Orbit data source: Space-Track

RUNNER-1 (TYVAK-1005), 56953 is an American payload satellite in SSO that was launched on Mon, 12 Jun 2023 UTC via an FALCON 9 launch vehicle from the Air Force Western Test Range (AFWTR). Payload-class satellites include a variety of spacecraft equipped with specific instruments for various scientific and technological missions. These include communications satellites like Starlink; space stations such as the ISS; scientific satellites like the Hubble; Earth observation satellites from companies like Planet Labs, Umbra, and HawkEye 360; GPS; miniature CubeSats for education and research; and military/defense satellites.

Loading next visibility...
Identifier
56953, 2023-084X
Orbit
SSO
Country
Flag of USUS
Related business
Manufacturer
TYVAK/IMAG
Mission
Operational Commercial Imaging
Bus & Motor
RUNNER, Unknown motor
Mass
86 kg wet, 86 kg dry
Launch date (UTC)
2023-06-12 (3 years ago)
Launch vehicle
FALCON 9
Launch site
Air Force Western Test Range (AFWTR)
Object type
Payload
Rocket body
Debris
Shape & HBR
Box, 0.4 m
Radar Cross Section
0.619 m², Medium (>0.1 m² and < 1m²)

Expand to show TLE details & history
Last TLE update: 5 hours ago

TLE from 5 hours ago
0 RUNNER-1 (TYVAK-1005)
1 56953U 23084X   26166.11501017  .00009040  00000-0  24641-3 0  9995
2 56953  97.6232 308.1353 0007000 328.0208  32.0611 15.37692753167287
Epoch: 2026-06-15T02:45Z
TLE epoch observation values (Epoch: 2026-06-15T02:45:36.878Z)
Latitude
0.00002°
Longitude
3.3256°
Altitude
451.989 km
Speed
7.643 km/s
True Right ascension
20h 32m 32s
True Declination
0° 00' 00"
Sunlit
Object was in full shadow at epoch
Visualization orbit readout
Latitude
Unknown
Longitude
Unknown
Altitude
Unknown
Speed
Unknown
Apparent Right ascension
Unknown
Apparent Declination
Unknown
Sunlit
N/A
Visualization observer readout
Local Sidereal Time
18:21:48
Azimuth
Unknown
Elevation
Unknown
Doppler factor
Unknown
Orbital elements
Apogee altitude
454.665 km
Perigee altitude
445.106 km
Semi-major axis
6,828.023 km
Eccentricity
0.0007
Inclination
97.6232°
RAAN
308.1353°
Arg. of periapsis
328.0208°
True anomaly
32.10371°
Mean anomaly
32.0611°
Eccentric anomaly
32.0824°
Mean motion
3.84681 °/min
Orbital period
93.58 mins
BSTAR
0.00024641
Loading maneuver chart data...
Computing Atmospheric mass density...

Documentation

Showing up to 5 results
|